Weather History for George, South Africa

Change the Weather History Date:

Saturday, September 21, 2013

  Actual Average Record
Temperature  
Mean Temperature 52 °F -  
Max Temperature 62 °F 66 °F 78 °F (2004)
Min Temperature 41 °F 49 °F 41 °F (2013)
Degree Days  
Heating Degree Days 14    
Growing Degree Days 2 (Base 50)    
Moisture  
Dew Point 37 °F    
Average Humidity 57    
Maximum Humidity 87    
Minimum Humidity 25    
Precipitation  
Precipitation 0.00 in - - ()
Sea Level Pressure  
Sea Level Pressure 30.30 in    
Wind  
Wind Speed 12 mph ()    
Max Wind Speed 81 mph    
Max Gust Speed -    
Visibility 7.4 miles    
Events      
Averages and records for this station are not official NWS values.
T = Trace of Precipitation, MM = Missing Value Source: Averaged Metar Reports

Daily Weather History Graph

Daily Weather History Graph

Search for Another Location

Airport:

Trip Planner

Search our weather history database for the weather conditions in past years. The results will help you decide how hot, cold, wet, or windy it might be!

Date:

Astronomy

Sep. 21, 2013 Rise Set
Actual Time 6:21 AM SAST 6:26 PM SAST
Civil Twilight 5:56 AM SAST 6:51 PM SAST
Nautical Twilight 5:27 AM SAST 7:20 PM SAST
Astronomical Twilight 4:58 AM SAST 7:49 PM SAST
Moon 8:41 PM SAST (9/21) 7:15 AM SAST (9/21)
Length of Visible Light 12h 54m
Length of Day
12h 04m
Waning Gibbous, 95% of the Moon is Illuminated
Sep 21
Waning Gibbous
Sep 27
Last Quarter
Oct 5
New
Oct 12
First Quarter
Oct 19
Full

Hourly Weather History & Observations

Time (SAST) Temp. Windchill Dew Point Humidity Pressure Visibility Wind Dir Wind Speed Gust Speed Precip Events Conditions
12:00 AM 42.8 °F 39.3 °F 33.8 °F 70% 30.15 in - WNW 5.8 mph - N/A   Clear
1:00 AM 41.0 °F 35.8 °F 32.0 °F 70% 30.15 in - WNW 8.1 mph - N/A   Clear
2:00 AM 44 °F - 32 °F 53% 30.19 in 19 mi WNW 11.5 mph - -  
3:00 AM 44.6 °F 38.8 °F 32.0 °F 61% 30.18 in 6.2 mi WNW 11.5 mph - N/A   Partly Cloudy
4:00 AM 42.8 °F 36.6 °F 32.0 °F 66% 30.18 in - WNW 11.5 mph - N/A   Clear
5:00 AM 46.4 °F 40.4 °F 32.0 °F 57% 30.21 in 6.2 mi WNW 13.8 mph - N/A   Scattered Clouds
6:00 AM 44.6 °F 38.8 °F 32.0 °F 61% 30.24 in 6.2 mi WNW 11.5 mph - N/A   Partly Cloudy
7:00 AM 44.6 °F 39.2 °F 32.0 °F 61% 30.27 in 6.2 mi WNW 10.4 mph - N/A   Partly Cloudy
8:00 AM 50 °F - 33 °F 40% 30.30 in 12 mi WNW 17.3 mph - -   Scattered Clouds
8:00 AM 50.0 °F - 33.8 °F 54% 30.30 in 6.2 mi WNW 17.3 mph - N/A   Partly Cloudy
9:00 AM 53.6 °F - 33.8 °F 47% 30.30 in 6.2 mi WNW 18.4 mph - N/A   Partly Cloudy
10:00 AM 55.4 °F - 33.8 °F 44% 30.33 in 6.2 mi WNW 21.9 mph - N/A   Scattered Clouds
11:00 AM 58 °F - 36 °F 31% 30.34 in 2 mi West 80.6 mph - -   Partly Cloudy
11:00 AM 57.2 °F - 35.6 °F 44% 30.33 in 6.2 mi West 18.4 mph - N/A   Scattered Clouds
12:00 PM 59.0 °F - 35.6 °F 42% 30.33 in 6.2 mi West 17.3 mph - N/A   Scattered Clouds
1:00 PM 60.8 °F - 35.6 °F 39% 30.33 in 6.2 mi West 15.0 mph - N/A   Mostly Cloudy
2:00 PM 62 °F - 35 °F 25% 30.32 in 12 mi West 16.1 mph - -   Mostly Cloudy
2:00 PM 60.8 °F - 35.6 °F 39% 30.33 in 6.2 mi West 15.0 mph - N/A   Mostly Cloudy
3:00 PM 57.2 °F - 41.0 °F 55% 30.33 in 6.2 mi SSW 17.3 mph - N/A   Mostly Cloudy
4:00 PM 57.2 °F - 42.8 °F 59% 30.33 in 6.2 mi SSW 19.6 mph - N/A   Scattered Clouds
5:00 PM 55.4 °F - 42.8 °F 63% 30.33 in 6.2 mi SSW 12.7 mph - N/A   Mostly Cloudy
6:00 PM 55.4 °F - 42.8 °F 63% 30.36 in 6.2 mi SW 10.4 mph - N/A   Mostly Cloudy
7:00 PM 51.8 °F - 42.8 °F 71% 30.39 in 6.2 mi WSW 5.8 mph - N/A   Scattered Clouds
8:00 PM 50 °F - 42 °F 67% 30.41 in 12 mi 3.5 mph - -   Scattered Clouds
8:00 PM 50.0 °F - 42.8 °F 76% 30.39 in 6.2 mi North 3.5 mph - N/A   Partly Cloudy
9:00 PM 48.2 °F - 42.8 °F 82% 30.39 in - NNW 3.5 mph - N/A   Clear
10:00 PM 46.4 °F 43.5 °F 42.8 °F 87% 30.39 in - NNW 5.8 mph - N/A   Clear
11:00 PM 46.4 °F 44.3 °F 41.0 °F 81% 30.39 in - NW 4.6 mph - N/A   Clear